Location: Ambatotampy
(18.8181°S, 47.6186°E)
Time: 00:06:52
(UTC+00:00)

Cosmos 2208 Rocket - Pass Details

Date: 21 January 2021
Orbit: 755 x 805 km, 74.0° (Epoch: 24 February)

Event Time Altitude Azimuth Distance (km) Brightness Sun altitude
Rises 01:35:06 0° 198° (SSW) 3,297 7.4 -12.4°
Reaches altitude 10° 01:37:31 10° 201° (SSW) 2,370 6.6 -11.9°
Maximum altitude 01:42:52 67° 282° (WNW) 865 4.0 -10.8°
Drops below altitude 10° 01:48:14 10° 4° (N) 2,370 6.3 -9.6°
Sets 01:50:38 0° 7° (N) 3,296 7.1 -9.1°
